User: anonymous   Login
Location: Red Deer
(52.2681°N, 113.8112°W)
Time: 16:13:54
(UTC-06:00)
Language:

QB50P2 - Orbit

View from above orbital plane
View from above orbital plane
View from above satellite
View from above satellite

Ground track
Ground track

The orbit data is extracted from the following two-line orbital elements,

1 40032U 14033Y   22267.39791749  .00002140  00000-0  22605-3 0  9993
2 40032  97.9398 200.6078 0013171  89.0012 271.2714 14.90268962448357
Epoch (UTC): 24 September 2022 09:33:00
Eccentricity: 0.0013171
inclination: 97.9398°
perigee height: 588 km
apogee height: 606 km
right ascension of ascending node: 200.6078°
argument of perigee: 89.0012°
revolutions per day: 14.90268962
mean anomaly at epoch: 271.2714°
orbit number at epoch: 44835

The dashed part of the orbit path shows where the satellite is in the earth's shadow,  

DLR